STARLINK-4197, 52849

Orbit data source: Space-Track

STARLINK-4197, 52849 is a payload satellite owned by SpaceX/Seattle (US) in LEO that was launched on Fri, 17 Jun 2022 UTC via an FALCON 9 launch vehicle from the Air Force Eastern Test Range (AFETR). Payload-class satellites include a variety of spacecraft equipped with specific instruments for various scientific and technological missions. These include communications satellites like Starlink; space stations such as the ISS; scientific satellites like the Hubble; Earth observation satellites from companies like Planet Labs, Umbra, and HawkEye 360; GPS; miniature CubeSats for education and research; and military/defense satellites.

Loading next visibility...
Identifier
52849, 2022-062V
Orbit
LEO
Country
Flag of USUS
Related business
Manufacturer
SpaceX/Seattle
Mission
Operational Commercial Communications
Bus & Motor
STARLINK, Unknown motor
Mass
297 kg wet, ~275 kg dry
Launch date (UTC)
2022-06-17 (4 years ago)
Launch vehicle
FALCON 9
Launch site
Air Force Eastern Test Range (AFETR)
Object type
Payload
Rocket body
Debris
Shape & HBR
Box + 1 Pan, 10.1 m
Radar Cross Section
13.562 m², Large (>1 m²)

Expand to show TLE details & history
Last TLE update: 3 days ago

TLE from 3 days ago
0 STARLINK-4197
1 52849U 22062V   26170.58407996  .00001554  00000-0  11569-3 0  9994
2 52849  53.1611 286.5873 0000949  93.1995 266.9105 15.08849213221302
Epoch: 2026-06-19T14:01Z
TLE epoch observation values (Epoch: 2026-06-19T14:01:04.508Z)
Latitude
-0.00003°
Longitude
168.50754°
Altitude
540.642 km
Speed
7.593 km/s
True Right ascension
19h 06m 20s
True Declination
0° 00' 00"
Sunlit
Object was in full shadow at epoch
Visualization orbit readout
Latitude
Unknown
Longitude
Unknown
Altitude
Unknown
Speed
Unknown
Apparent Right ascension
Unknown
Apparent Declination
Unknown
Sunlit
N/A
Visualization observer readout
Local Sidereal Time
21:24:13
Azimuth
Unknown
Elevation
Unknown
Doppler factor
Unknown
Orbital elements
Apogee altitude
540.626 km
Perigee altitude
539.313 km
Semi-major axis
6,918.106 km
Eccentricity
0.00009
Inclination
53.1611°
RAAN
286.5873°
Arg. of periapsis
93.1995°
True anomaly
266.89964°
Mean anomaly
266.9105°
Eccentric anomaly
266.90507°
Mean motion
3.77192 °/min
Orbital period
95.44 mins
BSTAR
0.00011569
Loading maneuver chart data...
Computing Atmospheric mass density...
Loading historical data...
Loading historical data...
Loading historical data...
Loading historical data...
Loading historical data...
Loading historical data...
Loading historical data...

Documentation

Showing up to 5 results
|